Terminal Aerodrome Forecast
Issued by NWS

Home | Current Version | Previous Version | Text Only | Print | Product List | Glossary On
Versions: 1 2 3 4 5 6 7 8 9 10 11 12 13 14 15 16 17 18 19 20 21 22 23 24 25 26 27 28 29 30 31 32 33
000
FTUS45 KGGW 012300
TAFGDV
TAF
KGDV 012323Z 0200/0224 16006KT P6SM FEW150 SCT250
     FM020900 VRB04KT P6SM VCSH SCT040 OVC060
     FM021300 33009KT 4SM -SN SCT011 OVC018
     FM022100 35007KT P6SM VCSH OVC020
      AMD LTD TO CLD VIS AND WIND=

USA.gov is the U.S. government's official web portal to all federal, state and local government web resources and services.